PulseSat

PulseSat

GSAT0205 (PRN E24)

Last updated on March 25, 2019, 3:11 a.m. UTC

1 40889U 15045A   19082.08805637 -.00000019  00000-0  00000-0 0  9992
2 40889  56.5143 294.5289 0004676  29.8523 330.2006  1.70474775 21959
UTC
Height (km)
Latitude
Longitude
Inclination
Orbital Period

Next 30 passes for location: Hong Kong

Rise time Rise Azimuth (degrees) Set time Set Azimuth (degrees) Duration Max altitude (degrees)

No matching passes for this satellites

PulseSat

PulseSat is the new satellites software and hardware trackering solution by Pulsely.
Satellite Two Line Element Set source: US Air Force Space Command

Download PulseSat for iOS
© 2017 Pulsely Limited